When you browse on this site, cookies collect data to enhance your experience and personalize the content and advertising you see.
Visit our Privacy Policy to learn more. By continuing to use the site, you agree to this use of cookies and data.
  • In Germany
  • List of Countries
  • For 7 days
  • Water Temperature
  • Satellite Maps
  • Weather Map
  • Weather Widgets
  • user-avatar
    Login

    Hourly Weather Biatris

    Today, 20 January, Sunday

    Time Temperature Precipitation Wind Pressure Humidity
    00:00 +21°C° 0 mm 3 mps 652 mmHg 78%
    01:00 +21°C° 0 mm 3 mps 652 mmHg 81%
    02:00 +20°C° 0 mm 3 mps 652 mmHg 85%
    03:00 +20°C° 0 mm 4 mps 652 mmHg 85%
    04:00 +20°C° 0 mm 4 mps 652 mmHg 84%
    05:00 +20°C° 0 mm 5 mps 652 mmHg 84%
    06:00 +20°C° 0 mm 5 mps 653 mmHg 80%
    07:00 +21°C° 0 mm 6 mps 654 mmHg 77%
    08:00 +21°C° 0 mm 7 mps 654 mmHg 75%
    09:00 +23°C° 0 mm 7 mps 655 mmHg 68%
    10:00 +24°C° 0 mm 7 mps 655 mmHg 61%
    11:00 +27°C° 0 mm 6 mps 656 mmHg 54%
    12:00 +27°C° 0 mm 7 mps 655 mmHg 54%
    13:00 +27°C° 0 mm 7 mps 655 mmHg 55%
    14:00 +26°C° 0 mm 7 mps 654 mmHg 59%
    15:00 +24°C° 0 mm 7 mps 654 mmHg 61%
    16:00 +23°C° 0 mm 6 mps 654 mmHg 63%
    17:00 +23°C° 0 mm 6 mps 654 mmHg 65%
    18:00 +22°C° 0 mm 6 mps 654 mmHg 68%
    19:00 +21°C° 0 mm 6 mps 654 mmHg 71%
    20:00 +20°C° 0 mm 6 mps 654 mmHg 74%
    21:00 +19°C° 0 mm 6 mps 655 mmHg 75%
    22:00 +19°C° 0 mm 6 mps 655 mmHg 76%
    23:00 +19°C° 0 mm 6 mps 655 mmHg 76%

    Tomorrow, 21 January, Monday

    Time Temperature Precipitation Wind Pressure Humidity
    00:00 +17°C° 0 mm 5 mps 655 mmHg 78%
    01:00 +17°C° 0 mm 5 mps 654 mmHg 79%
    02:00 +16°C° 0 mm 5 mps 654 mmHg 81%
    03:00 +16°C° 0 mm 5 mps 654 mmHg 81%
    04:00 +16°C° 0 mm 5 mps 654 mmHg 80%
    05:00 +16°C° 0 mm 5 mps 654 mmHg 80%
    06:00 +17°C° 0 mm 5 mps 654 mmHg 77%
    07:00 +19°C° 0 mm 5 mps 655 mmHg 73%
    08:00 +20°C° 0 mm 6 mps 655 mmHg 69%
    09:00 +21°C° 0 mm 6 mps 656 mmHg 65%
    10:00 +22°C° 0 mm 6 mps 656 mmHg 61%
    11:00 +24°C° 0 mm 6 mps 656 mmHg 57%
    12:00 +24°C° 0 mm 6 mps 656 mmHg 56%
    13:00 +26°C° 0 mm 6 mps 655 mmHg 55%
    14:00 +26°C° 0 mm 6 mps 655 mmHg 54%
    15:00 +25°C° 0 mm 5 mps 654 mmHg 57%
    16:00 +25°C° 0 mm 5 mps 653 mmHg 59%
    17:00 +23°C° 0 mm 5 mps 653 mmHg 62%
    18:00 +22°C° 0 mm 5 mps 653 mmHg 67%
    19:00 +20°C° 0 mm 4 mps 653 mmHg 73%
    20:00 +19°C° 0 mm 4 mps 653 mmHg 78%
    21:00 +19°C° 0 mm 4 mps 653 mmHg 78%
    22:00 +18°C° 0 mm 4 mps 654 mmHg 79%
    23:00 +18°C° 0 mm 4 mps 654 mmHg 79%

    Day after tomorrow, 22 January, Tuesday

    Time Temperature Precipitation Wind Pressure Humidity
    00:00 +18°C° 0 mm 4 mps 653 mmHg 81%
    01:00 +18°C° 0 mm 3 mps 653 mmHg 83%
    02:00 +17°C° 0 mm 3 mps 652 mmHg 85%
    03:00 +17°C° 0 mm 3 mps 652 mmHg 86%
    04:00 +17°C° 0 mm 3 mps 652 mmHg 86%
    05:00 +17°C° 0 mm 3 mps 652 mmHg 86%
    06:00 +18°C° 0 mm 4 mps 652 mmHg 82%
    07:00 +19°C° 0 mm 4 mps 653 mmHg 78%
    08:00 +20°C° 0 mm 5 mps 653 mmHg 74%
    09:00 +21°C° 0 mm 5 mps 653 mmHg 71%
    10:00 +22°C° 0 mm 5 mps 653 mmHg 67%
    11:00 +23°C° 0 mm 5 mps 653 mmHg 64%
    12:00 +25°C° 0 mm 4 mps 653 mmHg 59%
    13:00 +27°C° 0 mm 4 mps 653 mmHg 55%
    14:00 +28°C° 0 mm 4 mps 652 mmHg 50%
    15:00 +27°C° 0 mm 5 mps 652 mmHg 53%
    16:00 +27°C° 0 mm 5 mps 651 mmHg 56%
    17:00 +26°C° 0 mm 5 mps 651 mmHg 58%
    18:00 +23°C° 0 mm 4 mps 651 mmHg 65%
    19:00 +22°C° 0 mm 3 mps 651 mmHg 71%
    20:00 +20°C° 0 mm 2 mps 651 mmHg 78%
    21:00 +19°C° 0 mm 2 mps 651 mmHg 82%
    22:00 +19°C° 0 mm 2 mps 651 mmHg 86%
    23:00 +18°C° 0 mm 2 mps 651 mmHg 90%

    23 January, Wednesday

    Time Temperature Precipitation Wind Pressure Humidity
    00:00 +18°C° 0 mm 2 mps 651 mmHg 92%
    01:00 +19°C° 0 mm 1 mps 650 mmHg 94%
    02:00 +18°C° 0 mm 1 mps 650 mmHg 97%
    03:00 +18°C° 0 mm 1 mps 650 mmHg 97%
    04:00 +18°C° 0 mm 1 mps 650 mmHg 97%
    05:00 +17°C° 0 mm 2 mps 650 mmHg 97%
    06:00 +19°C° 0 mm 2 mps 650 mmHg 89%
    07:00 +21°C° 0 mm 3 mps 651 mmHg 80%
    08:00 +24°C° 0 mm 3 mps 652 mmHg 72%
    09:00 +26°C° 0 mm 3 mps 652 mmHg 62%
    10:00 +28°C° 0 mm 3 mps 653 mmHg 53%
    11:00 +30°C° 0 mm 3 mps 653 mmHg 43%
    12:00 +30°C° 0 mm 3 mps 652 mmHg 41%
    13:00 +31°C° 0 mm 3 mps 652 mmHg 39%
    14:00 +33°C° 0 mm 4 mps 651 mmHg 37%
    15:00 +31°C° 0 mm 3 mps 651 mmHg 39%
    16:00 +30°C° 0 mm 3 mps 651 mmHg 41%
    17:00 +29°C° 0 mm 3 mps 650 mmHg 43%
    18:00 +27°C° 0 mm 3 mps 650 mmHg 50%
    19:00 +26°C° 0 mm 3 mps 651 mmHg 56%
    20:00 +24°C° 0 mm 3 mps 651 mmHg 63%
    21:00 +23°C° 0 mm 2 mps 651 mmHg 66%
    22:00 +21°C° 0 mm 2 mps 651 mmHg 69%
    23:00 +20°C° 0 mm 2 mps 651 mmHg 72%

    24 January, Thursday

    Time Temperature Precipitation Wind Pressure Humidity
    00:00 +19°C° 0 mm 2 mps 651 mmHg 75%
    01:00 +20°C° 0 mm 1 mps 650 mmHg 79%
    02:00 +19°C° 0 mm 1 mps 650 mmHg 82%
    03:00 +19°C° 0 mm 1 mps 650 mmHg 85%
    04:00 +19°C° 0 mm 1 mps 650 mmHg 89%
    05:00 +19°C° 0 mm 1 mps 650 mmHg 93%
    06:00 +19°C° 0 mm 2 mps 651 mmHg 86%
    07:00 +21°C° 0 mm 2 mps 652 mmHg 79%
    08:00 +24°C° 0 mm 3 mps 652 mmHg 73%
    09:00 +25°C° 0 mm 3 mps 653 mmHg 67%
    10:00 +26°C° 0 mm 3 mps 653 mmHg 62%
    11:00 +28°C° 0 mm 3 mps 653 mmHg 57%
    12:00 +28°C° 0.1 mm 3 mps 652 mmHg 53%
    13:00 +29°C° 0.1 mm 3 mps 652 mmHg 50%
    14:00 +30°C° 0.1 mm 3 mps 652 mmHg 47%
    15:00 +30°C° 0.6 mm 3 mps 651 mmHg 49%
    16:00 +29°C° 0.6 mm 3 mps 651 mmHg 52%
    17:00 +28°C° 0.6 mm 3 mps 651 mmHg 55%
    18:00 +26°C° 0.2 mm 3 mps 651 mmHg 62%
    19:00 +24°C° 0.2 mm 3 mps 651 mmHg 69%
    20:00 +22°C° 0.2 mm 3 mps 652 mmHg 76%
    21:00 +21°C° 0 mm 3 mps 652 mmHg 80%
    22:00 +20°C° 0 mm 3 mps 652 mmHg 83%
    23:00 +20°C° 0 mm 3 mps 652 mmHg 86%

    25 January, Friday

    Time Temperature Precipitation Wind Pressure Humidity
    00:00 +19°C° 0 mm 3 mps 652 mmHg 89%
    01:00 +19°C° 0 mm 3 mps 652 mmHg 91%
    02:00 +19°C° 0 mm 2 mps 651 mmHg 93%
    03:00 +18°C° 0 mm 2 mps 651 mmHg 94%
    04:00 +18°C° 0 mm 2 mps 651 mmHg 95%
    05:00 +18°C° 0 mm 2 mps 651 mmHg 96%
    06:00 +19°C° 0 mm 2 mps 652 mmHg 90%
    07:00 +20°C° 0 mm 3 mps 653 mmHg 83%
    08:00 +22°C° 0 mm 3 mps 654 mmHg 77%
    09:00 +25°C° 0 mm 3 mps 654 mmHg 68%
    10:00 +27°C° 0 mm 3 mps 654 mmHg 60%
    11:00 +29°C° 0 mm 2 mps 654 mmHg 52%
    12:00 +30°C° 0 mm 2 mps 654 mmHg 46%
    13:00 +31°C° 0 mm 2 mps 654 mmHg 40%
    14:00 +34°C° 0 mm 2 mps 653 mmHg 35%
    15:00 +32°C° 0 mm 2 mps 653 mmHg 34%
    16:00 +33°C° 0 mm 3 mps 653 mmHg 34%
    17:00 +31°C° 0 mm 3 mps 652 mmHg 33%
    18:00 +29°C° 0 mm 3 mps 652 mmHg 41%
    19:00 +26°C° 0 mm 3 mps 652 mmHg 49%
    20:00 +24°C° 0 mm 3 mps 652 mmHg 57%
    21:00 +23°C° 0 mm 2 mps 652 mmHg 63%
    22:00 +21°C° 0 mm 2 mps 653 mmHg 69%
    23:00 +20°C° 0 mm 2 mps 653 mmHg 75%
    Show more